Precipitable_Water
0.46 0.47 0.48 0.46 0.47 0.43 0.35 0.29 0.24 0.26 0.32 0.40 0.44 0.49 0.51 0.50 0.50 0.52 0.59 0.61 0.63 0.66 0.68 0.68 0.66 0.63 0.60 0.58 0.56 0.52 0.47 0.42 0.38 0.36 0.33 0.30 0.29 0.29 0.26 0.24 0.22 0.20 0.19 0.19
0.45 0.46 0.42 0.36 0.41 0.35 0.31 0.31 0.32 0.34 0.35 0.49 0.52 0.53 0.50 0.47 0.52 0.59 0.57 0.57 0.61 0.64 0.64 0.63 0.61 0.59 0.57 0.55 0.51 0.48 0.44 0.41 0.38 0.33 0.30 0.29 0.28 0.25 0.23 0.21 0.20 0.19 0.18 0.18
0.40 0.46 0.41 0.30 0.34 0.40 0.41 0.42 0.40 0.35 0.45 0.52 0.49 0.46 0.46 0.55 0.62 0.56 0.53 0.54 0.57 0.59 0.61 0.59 0.57 0.56 0.53 0.51 0.48 0.47 0.44 0.41 0.35 0.30 0.28 0.27 0.25 0.22 0.21 0.20 0.19 0.17 0.16 0.16
0.38 0.40 0.27 0.34 0.43 0.40 0.41 0.43 0.45 0.45 0.44 0.43 0.46 0.52 0.61 0.66 0.58 0.53 0.52 0.53 0.55 0.58 0.57 0.53 0.53 0.52 0.52 0.49 0.48 0.42 0.37 0.34 0.31 0.29 0.26 0.24 0.22 0.20 0.18 0.16 0.16 0.16 0.16 0.16
0.35 0.33 0.34 0.37 0.40 0.40 0.39 0.39 0.44 0.43 0.49 0.54 0.60 0.62 0.56 0.58 0.56 0.53 0.52 0.54 0.55 0.56 0.53 0.52 0.52 0.50 0.48 0.46 0.39 0.36 0.34 0.33 0.29 0.26 0.24 0.21 0.17 0.16 0.17 0.17 0.17 0.15 0.15 0.15
0.42 0.36 0.31 0.42 0.51 0.52 0.49 0.35 0.53 0.55 0.56 0.57 0.59 0.42 0.43 0.53 0.53 0.51 0.51 0.53 0.52 0.52 0.52 0.51 0.49 0.49 0.45 0.40 0.37 0.34 0.33 0.30 0.26 0.23 0.19 0.16 0.17 0.18 0.19 0.18 0.16 0.15 0.15 0.15
0.39 0.32 0.35 0.47 0.50 0.54 0.35 0.37 0.57 0.58 0.59 0.55 0.45 0.46 0.49 0.52 0.50 0.50 0.50 0.50 0.51 0.51 0.50 0.50 0.50 0.46 0.41 0.35 0.33 0.33 0.28 0.24 0.20 0.17 0.17 0.18 0.19 0.19 0.18 0.16 0.16 0.15 0.14 0.15
0.33 0.29 0.25 0.46 0.47 0.42 0.50 0.58 0.54 0.51 0.50 0.48 0.49 0.49 0.48 0.47 0.46 0.47 0.48 0.49 0.50 0.50 0.49 0.48 0.46 0.40 0.35 0.33 0.31 0.27 0.22 0.18 0.17 0.17 0.19 0.20 0.20 0.18 0.17 0.16 0.15 0.14 0.14 0.14
0.45 0.45 0.59 0.62 0.56 0.57 0.54 0.49 0.50 0.50 0.51 0.50 0.48 0.46 0.44 0.43 0.46 0.47 0.47 0.48 0.49 0.49 0.48 0.44 0.39 0.37 0.32 0.29 0.25 0.20 0.18 0.17 0.18 0.19 0.20 0.20 0.18 0.17 0.16 0.16 0.14 0.14 0.14 0.15
0.46 0.50 0.51 0.53 0.54 0.54 0.54 0.52 0.54 0.54 0.51 0.49 0.44 0.44 0.44 0.44 0.45 0.47 0.48 0.48 0.48 0.46 0.43 0.38 0.37 0.33 0.28 0.22 0.20 0.19 0.18 0.18 0.19 0.20 0.20 0.19 0.18 0.17 0.15 0.14 0.14 0.15 0.16 0.16
0.46 0.50 0.53 0.54 0.55 0.56 0.55 0.55 0.52 0.51 0.49 0.46 0.45 0.44 0.45 0.44 0.46 0.48 0.47 0.46 0.45 0.41 0.38 0.36 0.34 0.25 0.22 0.20 0.20 0.18 0.19 0.19 0.20 0.19 0.18 0.17 0.16 0.16 0.15 0.16 0.18 0.18 0.18 0.19
0.40 0.51 0.50 0.49 0.53 0.55 0.51 0.49 0.48 0.46 0.44 0.45 0.45 0.44 0.46 0.46 0.48 0.46 0.44 0.42 0.40 0.38 0.36 0.30 0.23 0.21 0.20 0.20 0.20 0.20 0.19 0.19 0.19 0.18 0.17 0.16 0.15 0.15 0.17 0.18 0.19 0.18 0.19 0.20
0.49 0.54 0.55 0.53 0.53 0.52 0.48 0.47 0.47 0.44 0.44 0.42 0.45 0.45 0.46 0.44 0.44 0.42 0.40 0.39 0.38 0.34 0.25 0.23 0.21 0.19 0.20 0.21 0.21 0.20 0.19 0.18 0.18 0.17 0.16 0.16 0.15 0.15 0.14 0.16 0.17 0.18 0.19 0.20
0.49 0.49 0.47 0.49 0.46 0.51 0.50 0.47 0.45 0.44 0.44 0.44 0.44 0.44 0.43 0.40 0.39 0.38 0.38 0.37 0.30 0.24 0.22 0.20 0.20 0.20 0.21 0.22 0.22 0.20 0.19 0.18 0.17 0.16 0.16 0.15 0.16 0.16 0.16 0.15 0.14 0.15 0.18 0.20
0.49 0.50 0.49 0.50 0.49 0.47 0.46 0.42 0.39 0.38 0.39 0.39 0.41 0.41 0.40 0.39 0.37 0.37 0.35 0.26 0.24 0.21 0.20 0.20 0.21 0.21 0.23 0.23 0.21 0.19 0.18 0.17 0.17 0.17 0.16 0.17 0.17 0.16 0.16 0.16 0.16 0.17 0.18 0.20
0.50 0.50 0.50 0.46 0.43 0.41 0.40 0.39 0.37 0.37 0.37 0.37 0.38 0.40 0.39 0.38 0.36 0.29 0.24 0.23 0.21 0.20 0.21 0.22 0.21 0.23 0.23 0.22 0.21 0.19 0.18 0.18 0.17 0.16 0.16 0.16 0.17 0.17 0.17 0.17 0.17 0.18 0.18 0.18
0.44 0.42 0.43 0.37 0.36 0.36 0.36 0.38 0.36 0.36 0.37 0.38 0.39 0.39 0.37 0.34 0.26 0.23 0.22 0.22 0.23 0.22 0.23 0.23 0.23 0.24 0.22 0.22 0.21 0.19 0.18 0.17 0.16 0.16 0.16 0.17 0.17 0.17 0.18 0.18 0.17 0.17 0.18 0.19
0.49 0.42 0.39 0.37 0.35 0.35 0.35 0.36 0.36 0.37 0.36 0.38 0.38 0.37 0.33 0.26 0.22 0.21 0.22 0.23 0.23 0.23 0.24 0.26 0.25 0.24 0.24 0.22 0.20 0.19 0.17 0.16 0.16 0.17 0.17 0.17 0.18 0.19 0.17 0.17 0.17 0.17 0.18 0.19
0.44 0.38 0.38 0.37 0.38 0.36 0.34 0.34 0.35 0.37 0.38 0.38 0.35 0.32 0.27 0.23 0.22 0.23 0.23 0.23 0.23 0.23 0.25 0.27 0.25 0.24 0.22 0.20 0.19 0.18 0.17 0.17 0.17 0.17 0.18 0.18 0.17 0.17 0.17 0.16 0.17 0.18 0.18 0.19
0.40 0.39 0.39 0.39 0.37 0.34 0.33 0.34 0.35 0.35 0.36 0.34 0.32 0.28 0.23 0.22 0.23 0.23 0.24 0.23 0.24 0.25 0.28 0.26 0.24 0.22 0.20 0.19 0.18 0.19 0.18 0.18 0.17 0.17 0.17 0.17 0.16 0.16 0.16 0.16 0.17 0.18 0.18 0.19
0.39 0.38 0.35 0.34 0.33 0.33 0.33 0.34 0.33 0.33 0.34 0.33 0.30 0.25 0.22 0.23 0.24 0.24 0.24 0.24 0.26 0.28 0.28 0.25 0.22 0.20 0.19 0.19 0.20 0.19 0.18 0.17 0.17 0.17 0.16 0.15 0.15 0.16 0.16 0.17 0.17 0.18 0.19 0.19
0.34 0.33 0.32 0.32 0.30 0.30 0.31 0.32 0.33 0.33 0.32 0.31 0.27 0.24 0.23 0.24 0.25 0.25 0.27 0.26 0.28 0.28 0.24 0.22 0.20 0.19 0.19 0.20 0.19 0.18 0.17 0.17 0.16 0.16 0.15 0.16 0.16 0.16 0.17 0.17 0.18 0.19 0.20 0.20
0.33 0.32 0.30 0.29 0.28 0.29 0.30 0.32 0.32 0.30 0.29 0.28 0.26 0.25 0.25 0.26 0.27 0.26 0.26 0.30 0.27 0.24 0.22 0.20 0.19 0.19 0.18 0.18 0.17 0.16 0.15 0.15 0.15 0.15 0.16 0.16 0.17 0.17 0.18 0.19 0.19 0.20 0.20 0.20
0.33 0.31 0.30 0.30 0.30 0.29 0.29 0.31 0.31 0.30 0.29 0.28 0.28 0.28 0.28 0.27 0.29 0.31 0.29 0.26 0.23 0.21 0.20 0.19 0.17 0.17 0.17 0.16 0.15 0.15 0.15 0.15 0.15 0.16 0.16 0.17 0.18 0.19 0.19 0.20 0.20 0.20 0.20 0.21
0.32 0.31 0.30 0.29 0.29 0.30 0.31 0.32 0.31 0.30 0.29 0.29 0.29 0.30 0.32 0.32 0.29 0.26 0.24 0.22 0.20 0.19 0.17 0.16 0.16 0.15 0.15 0.14 0.14 0.15 0.15 0.15 0.16 0.17 0.18 0.18 0.18 0.19 0.20 0.20 0.20 0.20 0.21 0.21
0.31 0.30 0.30 0.31 0.32 0.32 0.32 0.32 0.30 0.31 0.31 0.31 0.31 0.32 0.30 0.27 0.25 0.22 0.21 0.20 0.17 0.15 0.15 0.14 0.14 0.14 0.14 0.14 0.15 0.15 0.16 0.16 0.17 0.18 0.19 0.19 0.19 0.20 0.21 0.21 0.20 0.20 0.21 0.21
0.30 0.30 0.30 0.31 0.32 0.32 0.31 0.31 0.31 0.32 0.32 0.30 0.28 0.27 0.25 0.23 0.21 0.20 0.17 0.15 0.15 0.14 0.14 0.14 0.14 0.14 0.15 0.15 0.15 0.16 0.17 0.18 0.18 0.19 0.20 0.20 0.20 0.21 0.21 0.20 0.20 0.21 0.21 0.22
Wind_Speed
13 15 17 21 22 22 23 21 19 17 19 18 15 14 12 13 15 17 18 18 18 18 20 21 22 25 27 30 32 35 37 40 43 45 47 48 49 50 50 51 53 55 56 57
11 12 14 16 19 22 21 20 20 17 18 16 14 13 14 15 16 16 17 17 19 20 21 22 25 27 29 32 34 37 40 43 45 47 48 49 49 50 52 53 54 56 57 59
11 11 12 15 19 17 18 19 18 19 19 16 15 14 14 14 15 17 18 18 19 21 23 25 27 29 31 34 37 40 42 45 47 47 48 49 50 51 53 54 56 57 58 60
10 10 11 12 13 16 14 14 16 14 14 14 14 14 15 15 17 19 20 20 21 23 25 26 28 30 33 36 39 42 45 46 46 47 48 49 51 52 54 55 57 58 59 61
12 13 11 10 13 13 13 13 14 13 13 13 13 14 16 17 18 20 21 22 23 24 26 27 29 32 35 39 41 44 45 45 46 47 49 50 51 53 55 56 58 59 60 60
9 10 13 11 12 12 13 14 14 13 13 13 14 15 17 18 20 22 22 23 23 25 26 29 31 34 37 40 42 43 44 45 46 47 49 51 53 54 55 57 59 59 60 59
12 13 14 14 12 12 12 14 13 13 13 13 14 15 18 19 22 22 23 23 25 26 29 31 34 37 39 41 42 43 44 45 46 48 50 52 53 55 56 58 59 59 59 59
10 11 14 13 11 13 12 9 10 11 12 14 15 17 19 21 22 23 24 26 27 29 31 34 36 38 39 40 42 43 44 46 48 49 51 53 54 56 57 57 58 58 59 57
10 10 9 9 10 10 10 10 12 13 14 16 18 20 21 23 24 26 27 29 30 31 33 35 36 38 39 41 42 43 45 47 49 50 52 53 54 55 56 56 57 57 56 55
9 11 10 9 9 10 11 12 13 14 16 18 20 21 23 25 27 28 30 31 32 33 34 35 37 38 40 41 43 45 47 48 50 51 53 53 54 54 55 56 55 55 54 53
13 12 12 14 14 14 13 14 15 17 19 20 22 24 26 28 29 30 31 31 32 33 34 36 37 39 40 42 44 46 48 49 51 52 52 53 53 54 54 53 53 53 53 51
16 16 15 16 16 15 15 16 17 18 20 23 25 27 29 30 31 31 31 31 32 33 34 36 37 39 42 44 46 48 49 50 51 52 52 53 54 54 52 52 51 51 50 48
16 15 15 14 15 16 16 17 19 20 23 25 28 29 31 31 31 30 30 31 32 33 34 36 38 41 43 45 47 48 49 50 51 52 53 52 53 52 52 50 50 49 47 46
14 14 14 15 15 16 17 19 21 24 26 28 30 31 31 30 29 30 30 31 31 33 35 38 40 42 44 46 47 48 49 51 52 52 51 51 50 50 50 50 50 48 45 44
14 14 14 14 16 18 19 21 24 26 29 30 31 31 29 29 29 29 29 30 32 35 37 39 41 43 45 47 48 49 50 51 51 50 49 49 49 48 48 48 48 47 45 43
15 14 15 17 18 19 22 24 27 29 31 30 30 29 29 28 28 28 30 32 34 36 38 40 43 45 47 48 48 49 50 50 50 49 48 47 47 48 47 47 47 45 43 43
15 17 18 18 20 22 25 27 28 28 28 29 29 28 27 27 28 30 32 33 35 38 40 43 45 46 47 48 49 50 49 49 48 47 46 46 47 47 47 46 46 43 42 41
17 17 17 19 21 24 25 26 27 28 28 28 28 27 27 28 30 31 33 35 37 40 42 45 46 47 48 49 49 49 48 47 46 45 46 46 46 47 47 46 45 42 40 38
18 17 18 21 22 23 25 27 28 28 28 28 28 28 29 30 31 33 35 37 40 42 44 46 47 48 49 49 48 47 46 45 45 45 45 47 46 46 46 45 42 40 38 35
16 18 20 21 22 24 26 27 27 28 28 28 29 29 30 32 33 35 37 40 42 45 46 47 47 48 49 48 47 45 45 45 45 45 46 46 46 46 44 43 40 37 35 32
17 19 21 22 24 26 27 28 28 29 30 30 30 31 32 34 36 38 40 42 44 46 47 47 48 48 47 46 45 45 45 45 45 45 46 46 46 44 42 39 37 34 32 31
19 21 23 25 26 27 28 29 30 30 31 31 32 33 34 36 38 40 42 44 45 47 47 46 46 46 45 46 45 45 45 45 45 45 45 45 43 41 38 36 33 30 29 27
21 23 25 26 27 29 29 30 31 32 32 33 34 35 36 38 39 41 43 43 45 46 46 45 46 46 46 45 44 45 45 45 45 45 44 42 39 36 34 32 29 28 26 24
25 26 27 28 28 30 31 32 33 33 33 34 35 36 37 39 41 42 43 45 45 45 45 44 45 45 46 44 45 45 45 45 44 43 40 38 35 33 31 29 28 26 24 20
27 27 28 29 30 31 32 33 32 33 33 34 35 36 38 39 40 42 43 43 44 44 43 44 45 45 44 44 44 44 44 43 41 38 36 34 32 30 29 27 25 23 19 14
29 29 29 30 31 32 32 32 33 33 34 35 36 37 39 39 40 41 42 42 42 43 43 44 44 44 44 44 44 44 42 40 37 35 33 31 30 28 26 24 22 18 14 10
29 29 29 30 31 31 32 32 32 33 34 35 36 37 38 39 40 40 40 41 42 43 43 44 44 44 44 44 43 41 38 36 34 32 30 29 28 26 23 21 17 13 9 8
Wind_Direction
222 219 215 220 221 224 227 232 234 242 244 253 255 258 258 262 263 268 270 272 273 276 281 286 291 296 301 305 307 310 312 313 314 315 315 315 315 316 316 316 316 316 315 315
215 217 219 222 224 225 231 233 241 240 248 250 253 260 267 270 272 271 274 275 276 279 283 288 293 297 301 304 308 310 312 313 314 314 315 315 315 316 316 316 316 316 316 316
213 216 218 235 225 224 230 232 232 238 246 248 256 256 266 273 277 280 281 281 281 283 287 291 295 298 302 305 308 310 312 313 313 314 315 316 316 316 317 317 317 317 317 317
213 216 226 229 229 225 224 234 235 240 244 247 247 259 269 274 282 287 286 286 286 287 291 293 297 300 303 306 309 311 312 313 313 314 315 316 317 317 317 318 318 318 318 318
216 224 243 234 226 222 227 240 239 235 240 245 251 263 274 280 285 289 290 290 289 290 292 296 299 302 305 308 310 312 313 314 314 315 316 317 317 318 318 318 319 319 319 319
220 227 232 240 235 235 237 249 239 235 239 246 259 270 273 286 291 294 295 294 292 293 296 298 301 304 307 309 311 312 313 314 315 316 316 317 318 318 319 319 319 319 319 319
235 246 257 244 240 242 241 253 235 237 243 252 262 271 282 289 293 294 295 295 295 296 298 300 303 306 308 309 311 313 314 315 316 317 317 318 318 319 319 319 319 319 319 320
235 243 258 241 241 238 244 235 229 239 252 262 271 280 287 290 292 294 295 296 297 298 300 302 305 307 308 310 312 313 315 316 316 317 318 318 318 319 319 319 319 320 320 320
231 245 249 241 244 232 236 237 246 255 263 272 280 287 292 294 294 295 296 297 298 300 301 303 306 308 310 311 313 314 315 316 317 318 318 318 319 319 320 320 320 321 321 322
250 251 248 237 235 240 247 253 261 271 276 281 285 291 295 296 296 296 297 298 299 300 303 305 307 309 310 312 314 315 316 316 317 317 318 319 319 320 320 321 321 321 322 322
259 255 250 247 248 249 256 265 272 278 282 285 289 293 295 297 297 298 298 299 300 302 303 305 308 310 312 313 314 315 316 316 317 317 318 319 320 320 321 322 322 322 322 322
260 252 251 248 246 256 264 271 277 282 286 290 292 294 296 298 298 299 299 300 301 303 305 307 309 311 312 314 315 315 316 316 317 318 318 319 320 320 321 322 322 323 322 321
258 251 250 245 254 263 266 274 281 286 291 293 295 296 298 299 298 299 300 301 302 304 306 308 310 312 313 314 315 315 316 317 317 318 318 319 320 321 321 323 324 324 323 322
248 246 251 251 256 266 273 279 285 290 293 296 298 299 299 298 298 299 300 302 304 306 308 310 311 312 314 314 315 316 316 317 317 318 318 319 320 320 321 323 324 325 324 323
246 251 251 254 266 275 280 285 290 294 297 298 299 298 298 298 299 300 301 304 306 307 309 310 312 312 314 315 316 316 317 317 317 317 318 319 320 321 322 323 323 324 323 323
242 250 259 268 272 278 284 288 292 295 297 298 298 298 298 299 300 301 303 305 307 308 310 311 312 314 315 315 316 316 317 317 317 318 318 319 320 321 322 323 323 323 323 324
246 258 267 273 277 283 287 292 295 297 298 297 297 298 298 299 300 302 304 306 307 309 311 312 313 314 315 315 315 316 316 317 317 317 318 319 320 321 322 322 323 322 323 323
260 266 270 277 283 289 292 294 296 297 297 298 298 297 298 299 301 303 305 307 308 310 312 313 313 314 314 315 316 316 316 316 317 317 318 319 320 321 321 321 322 321 322 323
261 266 276 283 288 291 294 297 298 298 299 299 298 297 298 300 302 304 306 308 310 311 312 313 313 314 314 315 315 315 315 315 316 316 317 318 319 320 320 321 321 321 322 322
263 274 281 286 290 294 297 299 300 300 300 299 299 299 300 301 302 304 306 308 309 310 312 312 313 313 314 314 315 315 315 315 315 316 317 318 318 319 320 320 320 320 321 321
268 277 283 288 293 296 297 299 300 300 300 299 299 299 300 302 303 305 306 308 310 311 312 312 313 313 314 314 315 315 315 315 315 316 317 317 318 318 319 319 319 320 320 321
278 282 286 290 294 296 298 299 300 301 301 300 300 301 302 303 304 305 306 307 310 311 312 312 313 313 314 314 314 315 315 315 315 315 316 317 317 318 318 319 319 320 321 322
284 287 290 291 293 296 299 300 300 300 301 300 301 301 301 303 304 306 307 309 310 311 311 312 313 313 314 314 314 314 314 315 315 316 316 316 317 317 318 319 319 320 320 320
288 289 291 294 296 298 299 301 300 301 301 302 302 303 303 304 306 307 308 309 310 311 311 312 313 313 314 314 314 314 314 315 315 316 316 316 317 317 318 318 318 319 319 317
291 291 293 294 296 298 300 301 302 302 302 303 304 304 305 306 307 308 309 310 310 311 312 313 313 313 314 314 314 314 314 315 315 316 316 316 317 317 317 317 317 317 317 314
290 290 292 294 296 298 300 301 302 302 303 304 304 305 306 307 308 309 310 310 311 312 313 313 314 314 314 314 314 314 315 315 315 315 315 315 316 316 317 317 317 316 314 311
291 291 293 295 297 299 301 301 302 303 304 305 305 306 307 308 309 310 311 312 313 313 314 314 314 314 314 314 314 314 314 314 314 314 314 314 315 315 316 317 316 314 309 309